When you browse on this site, cookies collect data to enhance your experience and personalize the content and advertising you see.
Visit our Privacy Policy to learn more. By continuing to use the site, you agree to this use of cookies and data.
  • In United Kingdom
  • List of Countries
  • For 7 days
  • Water Temperature
  • Weather Map
  • Weather Widgets
  • user-avatar
    Login

    Hourly Weather Kindia

    Today, 28 May, Thursday

    Time Temperature Precipitation Wind Pressure Humidity
    00:00 +28°C° 0.1 mm 1 mps 706 mmHg 70%
    01:00 +27°C° 0 mm 1 mps 706 mmHg 74%
    02:00 +27°C° 0.1 mm 1 mps 706 mmHg 75%
    03:00 +26°C° 0.1 mm 1 mps 706 mmHg 75%
    04:00 +26°C° 0.1 mm 1 mps 705 mmHg 75%
    05:00 +26°C° 0.1 mm 1 mps 706 mmHg 75%
    06:00 +26°C° 0.1 mm 1 mps 706 mmHg 75%
    07:00 +26°C° 0.1 mm 1 mps 707 mmHg 75%
    08:00 +28°C° 0 mm 1 mps 707 mmHg 68%
    09:00 +31°C° 0 mm 1 mps 707 mmHg 60%
    10:00 +33°C° 0 mm 1 mps 708 mmHg 53%
    11:00 +34°C° 0 mm 1 mps 707 mmHg 48%
    12:00 +36°C° 0 mm 1 mps 707 mmHg 44%
    13:00 +37°C° 0 mm 1 mps 706 mmHg 40%
    14:00 +38°C° 0 mm 2 mps 705 mmHg 40%
    15:00 +38°C° 0 mm 2 mps 704 mmHg 39%
    16:00 +37°C° 0 mm 2 mps 704 mmHg 39%
    17:00 +36°C° 0 mm 2 mps 704 mmHg 45%
    18:00 +34°C° 0 mm 2 mps 704 mmHg 50%
    19:00 +32°C° 0 mm 2 mps 704 mmHg 56%
    20:00 +31°C° 0 mm 2 mps 705 mmHg 57%
    21:00 +31°C° 0 mm 2 mps 705 mmHg 58%
    22:00 +31°C° 0 mm 2 mps 706 mmHg 59%
    23:00 +30°C° 0 mm 2 mps 706 mmHg 61%

    Tomorrow, 29 May, Friday

    Time Temperature Precipitation Wind Pressure Humidity
    00:00 +30°C° 0 mm 2 mps 706 mmHg 63%
    01:00 +30°C° 0 mm 2 mps 705 mmHg 65%
    02:00 +29°C° 0 mm 2 mps 705 mmHg 67%
    03:00 +29°C° 0 mm 2 mps 705 mmHg 69%
    04:00 +28°C° 0 mm 2 mps 705 mmHg 71%
    05:00 +28°C° 0 mm 2 mps 705 mmHg 72%
    06:00 +28°C° 0 mm 2 mps 706 mmHg 73%
    07:00 +28°C° 0 mm 3 mps 706 mmHg 74%
    08:00 +30°C° 0 mm 3 mps 707 mmHg 68%
    09:00 +31°C° 0 mm 3 mps 707 mmHg 61%
    10:00 +34°C° 0 mm 3 mps 707 mmHg 55%
    11:00 +35°C° 0 mm 3 mps 707 mmHg 51%
    12:00 +36°C° 0 mm 3 mps 706 mmHg 47%
    13:00 +37°C° 0 mm 3 mps 706 mmHg 43%
    14:00 +37°C° 0 mm 3 mps 705 mmHg 43%
    15:00 +37°C° 0 mm 3 mps 704 mmHg 42%
    16:00 +37°C° 0 mm 3 mps 703 mmHg 42%
    17:00 +35°C° 0.2 mm 3 mps 704 mmHg 47%
    18:00 +34°C° 0.2 mm 2 mps 704 mmHg 52%
    19:00 +31°C° 0.2 mm 2 mps 704 mmHg 57%
    20:00 +30°C° 0.8 mm 2 mps 705 mmHg 63%
    21:00 +29°C° 0.8 mm 2 mps 705 mmHg 69%
    22:00 +28°C° 0.8 mm 2 mps 705 mmHg 74%
    23:00 +28°C° 0 mm 3 mps 705 mmHg 76%

    Day after tomorrow, 30 May, Saturday

    Time Temperature Precipitation Wind Pressure Humidity
    00:00 +28°C° 0 mm 3 mps 705 mmHg 77%
    01:00 +28°C° 0 mm 3 mps 705 mmHg 78%
    02:00 +27°C° 0 mm 3 mps 705 mmHg 80%
    03:00 +27°C° 0 mm 2 mps 705 mmHg 81%
    04:00 +27°C° 0 mm 2 mps 705 mmHg 83%
    05:00 +27°C° 0 mm 3 mps 705 mmHg 82%
    06:00 +27°C° 0 mm 3 mps 706 mmHg 81%
    07:00 +27°C° 0 mm 4 mps 706 mmHg 80%
    08:00 +29°C° 0 mm 4 mps 707 mmHg 74%
    09:00 +30°C° 0 mm 4 mps 707 mmHg 68%
    10:00 +32°C° 0 mm 4 mps 707 mmHg 62%
    11:00 +34°C° 0 mm 3 mps 707 mmHg 56%
    12:00 +35°C° 0 mm 3 mps 707 mmHg 51%
    13:00 +36°C° 0 mm 3 mps 706 mmHg 45%
    14:00 +36°C° 0.1 mm 3 mps 706 mmHg 45%
    15:00 +36°C° 0.1 mm 3 mps 705 mmHg 46%
    16:00 +36°C° 0.1 mm 3 mps 704 mmHg 46%
    17:00 +33°C° 0.8 mm 4 mps 705 mmHg 55%
    18:00 +30°C° 0.8 mm 4 mps 705 mmHg 65%
    19:00 +27°C° 0.8 mm 5 mps 705 mmHg 74%
    20:00 +27°C° 0.3 mm 4 mps 706 mmHg 71%
    21:00 +27°C° 0.3 mm 2 mps 706 mmHg 68%
    22:00 +27°C° 0.3 mm 1 mps 706 mmHg 65%
    23:00 +27°C° 0 mm 1 mps 706 mmHg 67%

    31 May, Sunday

    Time Temperature Precipitation Wind Pressure Humidity
    00:00 +27°C° 0 mm 2 mps 706 mmHg 68%
    01:00 +27°C° 0 mm 2 mps 705 mmHg 70%
    02:00 +27°C° 0 mm 2 mps 705 mmHg 70%
    03:00 +27°C° 0 mm 2 mps 705 mmHg 71%
    04:00 +27°C° 0 mm 2 mps 705 mmHg 71%
    05:00 +27°C° 0 mm 2 mps 705 mmHg 72%
    06:00 +27°C° 0 mm 1 mps 706 mmHg 72%
    07:00 +27°C° 0 mm 1 mps 706 mmHg 73%
    08:00 +29°C° 0 mm 2 mps 707 mmHg 67%
    09:00 +31°C° 0 mm 2 mps 707 mmHg 61%
    10:00 +33°C° 0 mm 3 mps 708 mmHg 54%
    11:00 +35°C° 0 mm 3 mps 707 mmHg 50%
    12:00 +36°C° 0 mm 2 mps 707 mmHg 45%
    13:00 +38°C° 0 mm 2 mps 707 mmHg 40%
    14:00 +37°C° 0.1 mm 2 mps 706 mmHg 41%
    15:00 +37°C° 0.1 mm 2 mps 705 mmHg 42%
    16:00 +36°C° 0.1 mm 3 mps 705 mmHg 43%
    17:00 +33°C° 3.9 mm 3 mps 705 mmHg 52%
    18:00 +29°C° 3.9 mm 3 mps 705 mmHg 62%
    19:00 +26°C° 3.9 mm 4 mps 705 mmHg 71%
    20:00 +26°C° 0 mm 3 mps 705 mmHg 68%
    21:00 +27°C° 0 mm 1 mps 706 mmHg 64%
    22:00 +26°C° 0 mm 0 mps 707 mmHg 61%
    23:00 +27°C° 0 mm 1 mps 706 mmHg 64%

    1 June, Monday

    Time Temperature Precipitation Wind Pressure Humidity
    00:00 +27°C° 0 mm 1 mps 706 mmHg 67%
    01:00 +26°C° 0 mm 2 mps 705 mmHg 70%
    02:00 +26°C° 0 mm 2 mps 705 mmHg 74%
    03:00 +26°C° 0 mm 2 mps 705 mmHg 79%
    04:00 +26°C° 0 mm 2 mps 705 mmHg 83%
    05:00 +26°C° 0 mm 3 mps 706 mmHg 82%
    06:00 +26°C° 0 mm 3 mps 706 mmHg 82%
    07:00 +27°C° 0 mm 3 mps 706 mmHg 82%
    08:00 +28°C° 0 mm 3 mps 707 mmHg 75%
    09:00 +30°C° 0 mm 4 mps 707 mmHg 68%
    10:00 +33°C° 0 mm 4 mps 707 mmHg 61%
    11:00 +34°C° 0 mm 4 mps 707 mmHg 56%
    12:00 +35°C° 0 mm 3 mps 707 mmHg 51%
    13:00 +37°C° 0 mm 3 mps 706 mmHg 46%
    14:00 +36°C° 0.5 mm 3 mps 705 mmHg 48%
    15:00 +36°C° 0.5 mm 3 mps 705 mmHg 49%
    16:00 +35°C° 0.5 mm 3 mps 704 mmHg 50%
    17:00 +32°C° 1.9 mm 2 mps 704 mmHg 55%
    18:00 +30°C° 1.9 mm 2 mps 704 mmHg 60%
    19:00 +27°C° 1.9 mm 1 mps 704 mmHg 65%
    20:00 +27°C° 0.2 mm 2 mps 704 mmHg 67%
    21:00 +26°C° 0.2 mm 3 mps 705 mmHg 70%
    22:00 +26°C° 0.2 mm 3 mps 705 mmHg 73%
    23:00 +26°C° 0 mm 3 mps 705 mmHg 77%

    2 June, Tuesday

    Time Temperature Precipitation Wind Pressure Humidity
    00:00 +26°C° 0 mm 3 mps 705 mmHg 80%
    01:00 +26°C° 0 mm 3 mps 705 mmHg 84%
    02:00 +26°C° 0 mm 3 mps 705 mmHg 84%
    03:00 +25°C° 0 mm 3 mps 705 mmHg 85%
    04:00 +25°C° 0 mm 3 mps 705 mmHg 85%
    05:00 +25°C° 0 mm 3 mps 705 mmHg 84%
    06:00 +26°C° 0 mm 4 mps 706 mmHg 83%
    07:00 +26°C° 0 mm 4 mps 706 mmHg 82%
    08:00 +28°C° 0 mm 4 mps 706 mmHg 75%
    09:00 +29°C° 0 mm 4 mps 707 mmHg 69%
    10:00 +32°C° 0 mm 4 mps 707 mmHg 62%
    11:00 +33°C° 0 mm 4 mps 707 mmHg 57%
    12:00 +35°C° 0 mm 4 mps 706 mmHg 53%
    13:00 +36°C° 0 mm 4 mps 706 mmHg 48%
    14:00 +36°C° 0 mm 4 mps 705 mmHg 48%
    15:00 +36°C° 0 mm 4 mps 705 mmHg 48%
    16:00 +36°C° 0 mm 4 mps 704 mmHg 48%
    17:00 +33°C° 0.9 mm 4 mps 704 mmHg 55%
    18:00 +30°C° 0.9 mm 3 mps 704 mmHg 62%
    19:00 +27°C° 0.9 mm 3 mps 704 mmHg 68%
    20:00 +27°C° 2.4 mm 3 mps 705 mmHg 70%
    21:00 +26°C° 2.4 mm 2 mps 706 mmHg 71%
    22:00 +25°C° 2.4 mm 1 mps 706 mmHg 73%
    23:00 +25°C° 0.1 mm 1 mps 706 mmHg 75%
    Show more